Location: El Bakhil
(32.7726°N, 5.5387°W)
Time: 10:42:01
(UTC+00:00)

Meteor 1-11 Rocket - Pass Details

Date: 03 March 2021
Orbit: 831 x 916 km, 81.2° (Epoch: 15 April)

Event Time Altitude Azimuth Distance (km) Brightness Sun altitude
Rises 19:19:46 0° 161° (SSE) 3,483 6.7 -13.1°
Reaches altitude 10° 19:22:29 10° 151° (SSE) 2,534 5.9 -13.7°
Maximum altitude 19:27:28 31° 91° (E) 1,475 4.4 -14.7°
Drops below altitude 10° 19:32:23 10° 31° (NNE) 2,496 5.9 -15.8°
Sets 19:35:01 0° 21° (NNE) 3,423 6.7 -16.3°
